SCP
0 0 0 0 -0 0 0 0 0 0 0 0 0 0 0 0 0 0 0 0 0 0 0 0 0 0 0 0 0 0 0 0 0 0 0 0 0 0 0 0 0 0 0 0 0
0 0 0 0 0 0 0 0 0 0 0 0 0 0 0 0 -0 -0 -0 -0 -0 -0 0 0 0 0 0 0 0 0 0 0 0 0 0 0 0 0 0 0 0 0 0 0 0
0 0 0 0 0 0 0 0 0 0 0 0 0 0 0 0 0 0 -0 -0 -0 -0 0 0 0 0 0 0 0 0 0 0 0 0 0 0 0 0 0 0 0 0 0 0 0
0 0 0 0 0 0 0 -0 0 0 0 0 0 0 0 0 0 0 -0 -0 -0 -0 0 0 0 0 0 0 0 0 0 0 0 0 0 0 0 0 0 0 0 0 0 0 0
0 0 0 0 0 0 0 0 0 0 0 0 0 0 0 0 0 0 0 0 0 0 0 0 0 0 0 0 0 0 0 0 0 0 0 0 0 0 0 0 0 0 0 0 0
0 0 0 0 0 0 0 0 0 0 0 0 0 0 0 0 0 0 0 0 0 0 0 0 0 0 0 0 0 0 0 0 0 0 0 0 0 0 0 0 0 0 0 0 0
0 0 0 0 0 0 0 0 0 0 0 0 0 0 0 0 0 0 0 0 0 0 0 0 0 0 0 0 0 0 0 0 0 0 0 0 0 0 0 0 0 0 0 0 0
0 0 0 0 0 0 0 0 0 0 0 0 0 0 0 0 0 0 0 0 -0 0 0 0 0 0 0 0 0 0 0 0 0 0 0 0 0 0 0 0 0 0 0 0 0
0 0 0 0 0 0 0 0 0 0 0 0 0 0 0 0 0 0 0 0 0 0 0 0 0 0 0 0 0 0 0 0 0 0 0 0 0 0 0 0 0 0 0 0 0
0 0 0 0 0 0 0 0 0 0 0 0 0 0 0 0 0 0 0 0 0 0 0 0 0 0 0 0 0 0 0 0 0 0 0 0 0 0 0 0 0 0 0 0 0
0 0 0 0 0 0 0 0 0 0 0 0 0 0 0 0 0 0 0 -0 -0 0 -0 0 0 0 0 0 0 0 0 0 0 0 0 0 0 -0 0 0 0 0 0 0 0
0 0 0 0 0 0 -0 0 0 0 0 0 0 0 0 0 0 0 0 -0 -0 -0 -0 0 0 0 0 0 0 0 0 0 0 0 0 0 0 0 -0 0 0 0 0 0 0
0 0 0 0 0 0 -0 0 0 0 0 0 0 0 0 0 0 0 0 0 0 0 0 0 0 0 0 0 0 0 0 0 0 0 0 0 0 0 0 -0 -0 0 0 0 0
0 0 0 0 0 0 0 0 0 -0 0 0 0 0 0 0 -0 0 0 0 0 0 0 0 0 0 0 0 0 0 0 0 0 0 0 0 0 0 0 0 0 -0 0 0 0
-0 0 0 0 0 0 0 0 0 0 0 0 0 0 0 0 0 0 0 0 0 0 0 0 0 0 0 0 0 0 0 0 0 0 0 0 0 0 0 0 0 -0 0 -0 0
-0 0 0 0 0 0 0 0 0 0 0 0 0 0 0 0 0 0 0 0 0 0 0 0 0 0 0 0 0 0 0 0 0 0 0 0 0 0 0 0 0 0 -0 0 0
-0 0 0 0 0 0 0 0 0 0 0 0 0 0 0 0 0 0 0 0 0 0 0 0 0 0 0 0 0 0 0 0 0 0 0 0 0 0 0 0 0 -0 -0 -0 -0
0 0 0 0 0 0 0 0 0 0 0 0 0 0 0 0 0 0 0 0 0 0 0 0 0 0 0 0 0 0 0 0 0 0 0 0 0 0 0 0 -0 -0 -0 -0 -0
0 0 0 0 0 0 0 0 0 0 0 0 0 0 0 0 0 0 0 0 0 0 0 0 0 0 0 0 0 0 0 0 0 0 0 0 0 0 0 0 0 0 0 -0 -0
0 0 0 0 0 0 0 -0 0 0 0 0 0 0 0 0 0 0 0 0 0 0 0 0 0 0 0 0 0 0 0 0 0 0 0 0 0 0 0 0 0 0 -0 -0 -0
0 0 0 0 0 0 0 -0 0 0 0 0 0 0 0 0 0 0 0 0 0 0 0 0 0 0 0 0 0 0 0 0 0 0 0 0 0 0 0 0 0 -0 -0 -0 -0
0 -0 0 0 0 0 0 0 0 0 0 0 0 0 0 0 0 0 0 0 0 0 0 0 0 0 0 0 0 0 0 0 0 0 0 0 0 0 0 0 0 0 0 0 0
-0 -0 0 0 0 0 0 0 0 0 0 0 0 0 0 0 0 0 0 0 0 0 0 0 0 0 0 0 0 0 0 0 0 0 0 0 0 0 0 0 0 0 -0 0 0
0 -0 0 0 0 0 0 0 0 0 0 0 0 0 0 0 0 0 0 0 0 0 0 0 0 0 0 0 0 0 0 0 0 0 0 0 -0 -0 0 0 -0 0 0 0 0
0 0 0 0 0 0 0 0 0 0 0 0 0 0 0 0 0 0 0 0 0 0 0 0 0 0 0 0 0 -0 0 0 0 0 0 0 0 -0 -0 0 0 0 0 0 0
0 0 0 0 0 0 0 0 0 0 0 0 0 0 0 0 0 0 0 0 0 0 0 0 0 0 0 0 0 0 0 0 0 0 0 0 -0 -0 -0 0 0 0 0 0 0
0 0 0 0 0 0 0 0 0 0 0 0 0 0 0 0 0 0 0 0 0 0 0 0 0 0 0 0 0 0 0 0 0 0 0 0 0 0 0 0 0 0 0 0 -0
Wind_Speed_500mb
40 33 39 41 39 37 42 37 45 35 32 30 34 35 33 30 27 22 32 24 22 9 7 7 4 6 7 10 9 4 7 3 5 2 10 10 6 4 6 10 8 11 6 10 32
47 54 62 48 48 54 43 49 37 34 35 37 36 35 36 33 24 41 26 20 15 11 4 8 14 12 10 8 9 9 4 6 2 4 6 12 6 13 10 7 10 16 17 12 14
74 66 60 72 49 44 51 47 45 41 39 38 39 37 33 26 23 27 23 19 15 12 11 13 14 16 11 9 11 3 5 3 5 11 10 11 14 7 4 10 23 13 9 12 19
69 64 65 63 56 49 55 54 48 41 35 30 26 16 8 5 10 16 18 16 15 15 9 15 11 8 6 4 4 4 9 7 10 9 12 11 16 15 24 30 35 42 42 40 39
61 57 54 55 55 52 49 44 37 32 24 16 9 8 11 31 19 15 14 12 13 14 19 14 23 7 4 6 11 2 7 19 24 38 34 32 33 24 38 55 56 54 52 50 47
57 55 53 53 51 48 44 39 35 31 27 23 20 17 18 24 18 15 15 11 15 20 24 23 14 8 4 2 0 10 22 31 31 39 30 22 34 18 37 44 48 44 44 45 40
49 50 46 44 44 41 34 30 26 25 22 19 27 34 42 22 13 11 11 14 17 17 21 21 17 7 5 9 10 12 12 14 13 7 16 13 13 15 48 42 41 37 30 30 38
44 44 41 36 32 27 24 23 22 23 22 17 16 17 18 14 12 11 13 10 7 8 10 12 17 7 6 12 11 6 4 7 8 21 12 7 22 16 39 27 36 23 28 31 26
36 36 33 31 28 24 19 19 15 12 16 20 16 11 10 11 14 16 16 14 8 11 10 8 12 10 8 4 7 8 9 11 15 12 13 14 15 27 55 52 44 56 59 48 35
23 25 31 34 33 29 14 10 21 21 5 7 18 13 9 4 9 14 19 20 12 18 12 13 7 5 5 5 5 11 11 12 19 11 14 28 39 38 60 45 48 61 61 50 39
16 11 12 24 36 33 30 2 3 5 34 20 12 10 6 9 8 12 20 17 13 9 5 9 7 10 12 9 9 9 10 20 29 27 13 22 32 41 52 35 47 60 64 57 46
17 11 14 25 35 32 26 9 9 6 11 15 13 13 9 11 7 10 14 7 5 2 4 7 10 8 10 10 8 10 16 29 22 13 11 27 45 47 41 31 49 54 63 63 51
21 20 21 26 29 29 26 23 8 9 7 9 10 8 8 8 5 6 5 3 4 4 7 10 8 8 8 6 9 9 13 13 19 14 11 19 23 12 9 19 44 51 54 55 56
25 24 18 18 11 25 19 17 7 8 9 11 6 3 5 5 6 6 5 5 3 6 6 11 7 6 6 10 7 10 7 14 14 17 16 12 13 13 13 16 9 20 31 47 42
33 28 21 11 12 14 13 8 3 2 10 4 6 7 8 4 12 1 6 3 6 5 7 7 3 5 7 9 10 17 4 15 11 8 8 4 4 18 11 13 9 8 20 29 31
38 30 22 14 13 17 12 5 4 11 5 8 5 9 9 2 4 5 3 5 7 5 3 13 9 6 8 6 8 14 13 5 5 1 5 6 3 12 7 9 12 6 19 26 28
40 30 19 13 15 17 9 2 9 13 3 11 6 7 5 6 7 3 7 10 6 12 12 12 5 6 4 8 7 12 11 9 11 9 10 2 2 21 17 14 12 15 33 36 30
41 27 15 18 20 16 10 8 18 3 4 5 6 8 4 7 2 7 4 8 3 6 4 9 15 1 2 3 5 6 4 7 9 6 12 5 10 13 9 25 34 30 32 26 28
34 17 14 22 23 18 5 12 7 5 4 11 8 6 7 4 2 11 1 3 4 4 5 9 11 7 4 2 8 3 3 3 6 4 8 8 15 20 8 9 6 11 16 27 28
28 10 15 25 24 16 8 5 5 6 2 2 5 3 5 9 11 12 5 3 3 4 2 1 13 4 8 1 6 3 0 7 6 11 11 11 12 10 12 12 10 13 30 36 31
21 6 18 25 20 9 7 6 6 5 5 3 3 6 6 5 2 4 6 6 4 6 5 7 5 11 4 8 10 4 1 6 7 6 6 10 15 13 14 7 14 17 35 35 34
18 6 20 25 9 8 3 2 5 4 3 1 3 5 4 5 6 6 8 11 13 17 9 8 7 10 16 4 2 4 9 10 7 9 5 5 16 8 14 15 16 34 39 39 38
21 10 14 21 7 7 9 6 5 4 5 5 5 10 6 5 7 8 6 5 20 14 12 12 2 9 16 7 2 8 9 7 8 4 13 8 13 4 12 14 28 29 41 43 48
16 7 9 13 11 6 7 6 8 5 6 8 7 6 3 7 9 8 6 4 13 11 11 15 6 15 15 15 4 15 11 11 11 6 7 21 31 44 30 22 32 56 68 66 59
12 5 5 8 7 6 4 4 5 7 6 8 4 11 11 6 4 8 8 7 6 8 8 7 11 12 25 31 34 44 40 29 30 29 15 9 17 43 39 30 39 60 66 55 51
13 8 7 11 13 3 2 6 7 7 5 7 8 1 12 11 14 18 10 8 13 4 10 3 9 3 14 32 15 28 34 36 39 44 42 46 56 54 72 46 28 45 49 59 60
11 12 9 9 3 3 9 11 7 2 17 20 17 4 11 30 48 55 45 36 24 16 16 10 4 5 13 10 21 15 13 17 12 11 39 20 28 13 18 15 31 52 56 60 59
Wind_Direction_500mb
62 73 88 100 114 131 141 127 120 124 126 126 121 118 114 111 115 121 62 42 27 48 59 111 91 101 98 74 52 55 51 305 272 264 298 332 321 255 270 261 221 205 202 164 188
72 71 81 95 117 129 136 105 111 110 115 120 118 115 110 114 126 82 53 39 41 45 75 91 64 69 68 41 24 62 116 242 278 277 274 306 331 319 316 297 257 238 214 198 213
78 67 87 96 105 116 110 111 109 107 114 123 124 125 126 121 75 45 51 44 31 25 39 48 55 63 68 31 16 40 205 317 292 317 313 298 295 269 271 282 251 254 249 250 249
81 75 73 78 90 100 106 100 96 98 110 118 115 100 91 83 84 47 48 42 33 20 32 56 56 59 76 37 356 334 242 278 283 292 307 289 292 285 252 250 273 282 290 285 274
68 70 78 85 93 98 95 90 84 88 97 99 106 95 96 88 83 52 36 51 41 25 48 54 53 60 75 346 341 237 325 314 294 296 287 277 257 250 261 273 276 281 281 279 283
66 65 77 85 88 93 94 91 88 92 85 84 96 91 92 76 84 66 57 57 47 42 44 52 51 40 82 8 351 304 295 293 295 286 286 257 261 241 261 268 271 273 274 283 281
62 66 77 77 82 84 82 81 80 74 69 79 84 83 84 81 73 47 37 36 36 48 49 40 29 24 350 333 320 295 319 323 282 291 300 293 288 233 271 272 272 274 279 281 267
57 60 63 65 68 70 71 65 60 63 58 54 70 86 81 71 48 26 27 29 14 39 27 17 11 31 12 323 335 331 63 359 261 304 269 184 274 283 296 292 255 261 293 304 278
59 55 57 56 51 45 47 49 44 57 54 44 54 85 80 62 49 38 29 25 50 27 8 349 3 15 350 6 331 353 281 273 301 210 283 221 283 269 278 281 270 281 290 290 278
49 51 72 67 51 34 10 80 39 43 0 61 46 70 69 62 38 39 21 6 15 354 14 13 6 27 7 80 273 280 292 267 264 278 280 276 276 269 271 268 267 277 281 283 272
18 47 45 21 8 10 11 7 16 49 58 73 68 91 90 13 30 18 4 2 0 11 26 11 24 241 236 216 244 265 261 267 276 280 286 267 273 271 272 251 254 262 266 265 264
15 350 325 338 347 355 359 80 75 109 85 57 52 49 29 2 353 8 351 17 41 304 11 12 234 244 262 273 261 277 282 282 290 281 281 283 279 273 267 245 240 245 251 253 258
356 342 329 329 341 356 22 41 60 115 77 27 12 10 358 346 313 306 311 327 171 230 205 187 233 289 231 281 301 259 242 272 272 315 259 326 292 326 296 255 252 251 254 257 253
351 341 327 330 354 357 18 20 65 138 74 311 8 15 335 306 277 272 284 302 248 258 263 231 261 228 255 259 199 292 227 260 284 332 320 42 297 310 321 308 266 263 235 241 238
354 352 351 349 344 6 353 3 104 121 53 280 315 317 306 267 314 319 270 273 262 272 75 275 285 287 271 232 163 246 299 262 271 266 314 24 285 270 323 321 305 263 236 211 208
359 353 355 2 7 4 3 22 132 44 282 354 315 354 1 296 292 303 286 277 283 287 247 254 291 255 235 288 211 307 309 338 69 325 277 240 182 285 284 256 300 279 226 215 212
356 357 2 21 5 5 12 123 37 88 304 325 338 13 343 296 317 355 359 4 33 10 8 324 257 280 252 317 358 6 10 338 355 9 234 10 210 249 260 257 256 244 225 222 224
354 2 29 24 8 3 346 53 65 246 305 332 334 321 310 6 309 327 359 348 96 79 20 27 333 136 48 231 306 346 58 127 289 316 289 304 230 259 226 302 288 264 258 236 238
357 16 40 9 358 349 325 48 194 209 281 336 324 353 323 354 320 14 344 233 227 168 57 14 276 311 227 291 113 332 9 157 277 245 289 268 286 293 288 296 312 267 240 241 242
1 33 24 359 353 349 62 162 194 213 271 44 335 65 315 316 2 15 328 226 148 152 83 192 297 217 285 30 56 160 136 18 12 345 306 295 285 242 309 298 266 256 257 262 262
6 29 5 358 355 16 96 236 271 234 187 154 259 295 269 288 262 286 270 268 156 136 87 135 127 288 326 185 184 124 208 84 141 171 204 312 276 222 235 270 295 274 265 267 276
1 37 357 358 32 40 69 279 318 286 246 209 175 237 246 306 281 269 236 219 176 157 161 198 162 278 247 132 77 193 205 164 126 258 196 167 272 282 270 285 287 286 284 283 285
349 336 1 5 79 354 320 299 265 228 232 189 239 205 180 248 294 219 251 244 181 165 173 177 229 327 337 36 58 233 202 146 100 60 207 159 260 301 310 305 290 280 290 291 290
348 1 9 43 72 95 14 292 304 272 256 213 230 179 166 251 223 288 274 248 208 215 185 176 193 196 223 236 163 253 202 192 158 155 208 232 278 275 288 289 292 291 293 294 290
353 19 8 323 8 359 311 296 292 294 225 228 250 227 184 268 256 235 232 283 214 229 163 173 230 215 252 271 267 266 265 236 212 219 209 265 233 277 289 294 294 297 301 303 301
332 347 343 286 287 295 186 265 233 287 223 240 226 260 195 230 218 277 224 204 240 110 172 220 271 112 275 252 252 262 253 230 230 235 247 258 275 276 276 289 293 306 305 305 302
299 290 286 268 243 258 219 224 247 5 289 251 238 246 223 241 256 264 268 264 249 179 191 182 227 357 270 354 310 280 251 177 188 207 217 223 235 279 283 275 287 308 310 304 307
Wind_Speed_850mb
40 33 39 41 39 37 42 37 45 35 32 30 34 35 33 30 27 22 32 24 22 9 7 7 4 6 7 10 9 4 7 3 5 2 10 10 6 4 6 10 8 11 6 10 32
47 54 62 48 48 54 43 49 37 34 35 37 36 35 36 33 24 41 26 20 15 11 4 8 14 12 10 8 9 9 4 6 2 4 6 12 6 13 10 7 10 16 17 12 14
74 66 60 72 49 44 51 47 45 41 39 38 39 37 33 26 23 27 23 19 15 12 11 13 14 16 11 9 11 3 5 3 5 11 10 11 14 7 4 10 23 13 9 12 19
69 64 65 63 56 49 55 54 48 41 35 30 26 16 8 5 10 16 18 16 15 15 9 15 11 8 6 4 4 4 9 7 10 9 12 11 16 15 24 30 35 42 42 40 39
61 57 54 55 55 52 49 44 37 32 24 16 9 8 11 31 19 15 14 12 13 14 19 14 23 7 4 6 11 2 7 19 24 38 34 32 33 24 38 55 56 54 52 50 47
57 55 53 53 51 48 44 39 35 31 27 23 20 17 18 24 18 15 15 11 15 20 24 23 14 8 4 2 0 10 22 31 31 39 30 22 34 18 37 44 48 44 44 45 40
49 50 46 44 44 41 34 30 26 25 22 19 27 34 42 22 13 11 11 14 17 17 21 21 17 7 5 9 10 12 12 14 13 7 16 13 13 15 48 42 41 37 30 30 38
44 44 41 36 32 27 24 23 22 23 22 17 16 17 18 14 12 11 13 10 7 8 10 12 17 7 6 12 11 6 4 7 8 21 12 7 22 16 39 27 36 23 28 31 26
36 36 33 31 28 24 19 19 15 12 16 20 16 11 10 11 14 16 16 14 8 11 10 8 12 10 8 4 7 8 9 11 15 12 13 14 15 27 55 52 44 56 59 48 35
23 25 31 34 33 29 14 10 21 21 5 7 18 13 9 4 9 14 19 20 12 18 12 13 7 5 5 5 5 11 11 12 19 11 14 28 39 38 60 45 48 61 61 50 39
16 11 12 24 36 33 30 2 3 5 34 20 12 10 6 9 8 12 20 17 13 9 5 9 7 10 12 9 9 9 10 20 29 27 13 22 32 41 52 35 47 60 64 57 46
17 11 14 25 35 32 26 9 9 6 11 15 13 13 9 11 7 10 14 7 5 2 4 7 10 8 10 10 8 10 16 29 22 13 11 27 45 47 41 31 49 54 63 63 51
21 20 21 26 29 29 26 23 8 9 7 9 10 8 8 8 5 6 5 3 4 4 7 10 8 8 8 6 9 9 13 13 19 14 11 19 23 12 9 19 44 51 54 55 56
25 24 18 18 11 25 19 17 7 8 9 11 6 3 5 5 6 6 5 5 3 6 6 11 7 6 6 10 7 10 7 14 14 17 16 12 13 13 13 16 9 20 31 47 42
33 28 21 11 12 14 13 8 3 2 10 4 6 7 8 4 12 1 6 3 6 5 7 7 3 5 7 9 10 17 4 15 11 8 8 4 4 18 11 13 9 8 20 29 31
38 30 22 14 13 17 12 5 4 11 5 8 5 9 9 2 4 5 3 5 7 5 3 13 9 6 8 6 8 14 13 5 5 1 5 6 3 12 7 9 12 6 19 26 28
40 30 19 13 15 17 9 2 9 13 3 11 6 7 5 6 7 3 7 10 6 12 12 12 5 6 4 8 7 12 11 9 11 9 10 2 2 21 17 14 12 15 33 36 30
41 27 15 18 20 16 10 8 18 3 4 5 6 8 4 7 2 7 4 8 3 6 4 9 15 1 2 3 5 6 4 7 9 6 12 5 10 13 9 25 34 30 32 26 28
34 17 14 22 23 18 5 12 7 5 4 11 8 6 7 4 2 11 1 3 4 4 5 9 11 7 4 2 8 3 3 3 6 4 8 8 15 20 8 9 6 11 16 27 28
28 10 15 25 24 16 8 5 5 6 2 2 5 3 5 9 11 12 5 3 3 4 2 1 13 4 8 1 6 3 0 7 6 11 11 11 12 10 12 12 10 13 30 36 31
21 6 18 25 20 9 7 6 6 5 5 3 3 6 6 5 2 4 6 6 4 6 5 7 5 11 4 8 10 4 1 6 7 6 6 10 15 13 14 7 14 17 35 35 34
18 6 20 25 9 8 3 2 5 4 3 1 3 5 4 5 6 6 8 11 13 17 9 8 7 10 16 4 2 4 9 10 7 9 5 5 16 8 14 15 16 34 39 39 38
21 10 14 21 7 7 9 6 5 4 5 5 5 10 6 5 7 8 6 5 20 14 12 12 2 9 16 7 2 8 9 7 8 4 13 8 13 4 12 14 28 29 41 43 48
16 7 9 13 11 6 7 6 8 5 6 8 7 6 3 7 9 8 6 4 13 11 11 15 6 15 15 15 4 15 11 11 11 6 7 21 31 44 30 22 32 56 68 66 59
12 5 5 8 7 6 4 4 5 7 6 8 4 11 11 6 4 8 8 7 6 8 8 7 11 12 25 31 34 44 40 29 30 29 15 9 17 43 39 30 39 60 66 55 51
13 8 7 11 13 3 2 6 7 7 5 7 8 1 12 11 14 18 10 8 13 4 10 3 9 3 14 32 15 28 34 36 39 44 42 46 56 54 72 46 28 45 49 59 60
11 12 9 9 3 3 9 11 7 2 17 20 17 4 11 30 48 55 45 36 24 16 16 10 4 5 13 10 21 15 13 17 12 11 39 20 28 13 18 15 31 52 56 60 59
Wind_Direction_850mb
62 73 88 100 114 131 141 127 120 124 126 126 121 118 114 111 115 121 62 42 27 48 59 111 91 101 98 74 52 55 51 305 272 264 298 332 321 255 270 261 221 205 202 164 188
72 71 81 95 117 129 136 105 111 110 115 120 118 115 110 114 126 82 53 39 41 45 75 91 64 69 68 41 24 62 116 242 278 277 274 306 331 319 316 297 257 238 214 198 213
78 67 87 96 105 116 110 111 109 107 114 123 124 125 126 121 75 45 51 44 31 25 39 48 55 63 68 31 16 40 205 317 292 317 313 298 295 269 271 282 251 254 249 250 249
81 75 73 78 90 100 106 100 96 98 110 118 115 100 91 83 84 47 48 42 33 20 32 56 56 59 76 37 356 334 242 278 283 292 307 289 292 285 252 250 273 282 290 285 274
68 70 78 85 93 98 95 90 84 88 97 99 106 95 96 88 83 52 36 51 41 25 48 54 53 60 75 346 341 237 325 314 294 296 287 277 257 250 261 273 276 281 281 279 283
66 65 77 85 88 93 94 91 88 92 85 84 96 91 92 76 84 66 57 57 47 42 44 52 51 40 82 8 351 304 295 293 295 286 286 257 261 241 261 268 271 273 274 283 281
62 66 77 77 82 84 82 81 80 74 69 79 84 83 84 81 73 47 37 36 36 48 49 40 29 24 350 333 320 295 319 323 282 291 300 293 288 233 271 272 272 274 279 281 267
57 60 63 65 68 70 71 65 60 63 58 54 70 86 81 71 48 26 27 29 14 39 27 17 11 31 12 323 335 331 63 359 261 304 269 184 274 283 296 292 255 261 293 304 278
59 55 57 56 51 45 47 49 44 57 54 44 54 85 80 62 49 38 29 25 50 27 8 349 3 15 350 6 331 353 281 273 301 210 283 221 283 269 278 281 270 281 290 290 278
49 51 72 67 51 34 10 80 39 43 0 61 46 70 69 62 38 39 21 6 15 354 14 13 6 27 7 80 273 280 292 267 264 278 280 276 276 269 271 268 267 277 281 283 272
18 47 45 21 8 10 11 7 16 49 58 73 68 91 90 13 30 18 4 2 0 11 26 11 24 241 236 216 244 265 261 267 276 280 286 267 273 271 272 251 254 262 266 265 264
15 350 325 338 347 355 359 80 75 109 85 57 52 49 29 2 353 8 351 17 41 304 11 12 234 244 262 273 261 277 282 282 290 281 281 283 279 273 267 245 240 245 251 253 258
356 342 329 329 341 356 22 41 60 115 77 27 12 10 358 346 313 306 311 327 171 230 205 187 233 289 231 281 301 259 242 272 272 315 259 326 292 326 296 255 252 251 254 257 253
351 341 327 330 354 357 18 20 65 138 74 311 8 15 335 306 277 272 284 302 248 258 263 231 261 228 255 259 199 292 227 260 284 332 320 42 297 310 321 308 266 263 235 241 238
354 352 351 349 344 6 353 3 104 121 53 280 315 317 306 267 314 319 270 273 262 272 75 275 285 287 271 232 163 246 299 262 271 266 314 24 285 270 323 321 305 263 236 211 208
359 353 355 2 7 4 3 22 132 44 282 354 315 354 1 296 292 303 286 277 283 287 247 254 291 255 235 288 211 307 309 338 69 325 277 240 182 285 284 256 300 279 226 215 212
356 357 2 21 5 5 12 123 37 88 304 325 338 13 343 296 317 355 359 4 33 10 8 324 257 280 252 317 358 6 10 338 355 9 234 10 210 249 260 257 256 244 225 222 224
354 2 29 24 8 3 346 53 65 246 305 332 334 321 310 6 309 327 359 348 96 79 20 27 333 136 48 231 306 346 58 127 289 316 289 304 230 259 226 302 288 264 258 236 238
357 16 40 9 358 349 325 48 194 209 281 336 324 353 323 354 320 14 344 233 227 168 57 14 276 311 227 291 113 332 9 157 277 245 289 268 286 293 288 296 312 267 240 241 242
1 33 24 359 353 349 62 162 194 213 271 44 335 65 315 316 2 15 328 226 148 152 83 192 297 217 285 30 56 160 136 18 12 345 306 295 285 242 309 298 266 256 257 262 262
6 29 5 358 355 16 96 236 271 234 187 154 259 295 269 288 262 286 270 268 156 136 87 135 127 288 326 185 184 124 208 84 141 171 204 312 276 222 235 270 295 274 265 267 276
1 37 357 358 32 40 69 279 318 286 246 209 175 237 246 306 281 269 236 219 176 157 161 198 162 278 247 132 77 193 205 164 126 258 196 167 272 282 270 285 287 286 284 283 285
349 336 1 5 79 354 320 299 265 228 232 189 239 205 180 248 294 219 251 244 181 165 173 177 229 327 337 36 58 233 202 146 100 60 207 159 260 301 310 305 290 280 290 291 290
348 1 9 43 72 95 14 292 304 272 256 213 230 179 166 251 223 288 274 248 208 215 185 176 193 196 223 236 163 253 202 192 158 155 208 232 278 275 288 289 292 291 293 294 290
353 19 8 323 8 359 311 296 292 294 225 228 250 227 184 268 256 235 232 283 214 229 163 173 230 215 252 271 267 266 265 236 212 219 209 265 233 277 289 294 294 297 301 303 301
332 347 343 286 287 295 186 265 233 287 223 240 226 260 195 230 218 277 224 204 240 110 172 220 271 112 275 252 252 262 253 230 230 235 247 258 275 276 276 289 293 306 305 305 302
299 290 286 268 243 258 219 224 247 5 289 251 238 246 223 241 256 264 268 264 249 179 191 182 227 357 270 354 310 280 251 177 188 207 217 223 235 279 283 275 287 308 310 304 307